Location: Oriwa
(40.7500°S, 175.3333°E)
Time: 14:13:22
(UTC+00:00)

Cosmos 1484 Rocket - Pass Details

Date: 03 February 2023
Orbit: 495 x 546 km, 97.5° (Epoch: 30 March)

Event Time Altitude Azimuth Distance (km) Brightness Sun altitude
Exits shadow 15:06:25 15° 50° (NE) 1,425 4.9 -22.6°
Maximum altitude 15:08:57 33° 108° (ESE) 877 4.3 -22.2°
Drops below altitude 10° 15:12:18 10° 173° (S) 1,731 6.1 -21.8°
Sets 15:14:32 0° 182° (S) 2,626 7.0 -21.5°
